Wind_Speed
12 12 10 11 12 14 16 17 17 18 17 14 11 8 3 3 4 6 10 12 13 11 9 8 8 7 6 5 4 3 1 1 2
14 12 12 14 15 16 17 18 18 17 15 13 11 9 5 5 6 10 13 15 14 12 11 10 9 8 8 8 7 7 6 5 3
15 15 15 15 16 17 17 17 17 15 12 12 11 9 7 7 8 10 13 12 12 11 10 10 9 9 9 8 8 8 8 7 6
17 18 17 17 17 18 18 17 16 14 12 12 12 10 9 7 8 9 12 13 12 11 11 10 9 9 9 8 8 7 7 8 7
19 19 19 18 18 18 18 17 15 13 12 12 12 9 9 9 9 9 11 12 12 12 11 10 10 9 9 9 9 9 9 9 8
21 21 21 20 19 18 17 16 15 14 13 12 11 10 10 9 8 9 11 11 11 11 11 11 11 11 11 11 11 11 11 10 9
22 22 22 21 19 19 17 15 14 13 13 12 10 10 10 8 7 8 9 10 10 11 11 12 11 11 12 11 11 11 11 11 11
24 24 24 22 20 18 17 15 14 13 12 11 10 9 8 7 5 6 7 8 8 10 11 12 11 11 11 11 11 11 10 10 10
25 23 23 21 20 19 18 15 14 13 12 10 9 8 7 6 4 4 6 6 7 8 9 10 10 11 11 11 11 11 11 11 12
26 25 24 22 21 19 18 17 15 13 11 11 8 7 6 5 4 4 5 6 7 7 9 9 10 11 12 12 13 13 13 13 13
28 26 25 23 21 19 17 16 14 12 10 9 9 7 6 5 4 3 3 5 5 5 8 9 10 11 11 12 13 14 14 14 15
28 27 26 24 22 20 18 17 14 12 10 8 8 7 6 5 3 2 1 3 4 4 7 9 10 11 11 12 13 14 15 15 16
29 28 26 25 23 20 18 16 14 13 11 9 8 7 6 5 4 3 2 2 3 3 6 9 10 11 12 13 14 15 16 16 16
30 29 27 26 24 21 19 17 13 13 12 10 8 7 6 4 4 4 3 2 3 4 7 9 10 11 13 13 13 14 15 16 18
32 30 29 27 25 23 22 18 16 14 12 11 9 8 6 5 5 5 4 3 4 4 6 10 10 11 13 13 12 13 14 16 18
33 32 31 29 27 23 22 20 18 16 14 12 10 8 7 7 7 7 6 5 4 6 6 10 10 12 13 12 13 13 14 17 19
36 35 33 31 28 27 25 22 21 18 15 13 10 7 9 10 9 9 6 5 5 6 7 9 10 11 11 11 13 14 16 18 19
38 36 34 33 32 29 27 24 22 19 17 15 9 6 6 10 10 10 9 7 6 6 8 9 11 12 11 11 13 15 17 18 19
37 36 36 36 34 31 28 26 23 20 18 18 17 13 9 7 6 11 10 9 7 7 9 9 10 10 11 13 15 17 18 19 20
40 39 39 38 35 33 31 29 26 22 21 19 17 17 15 14 12 9 10 9 9 9 9 10 10 10 12 14 16 17 18 19 22
Wind_Direction
173 165 158 145 140 136 135 134 142 146 152 165 147 141 133 108 106 107 102 94 88 88 86 77 72 69 63 58 64 64 51 183 181
164 160 151 143 140 138 137 137 143 147 154 144 140 134 134 120 120 109 97 92 90 85 78 72 66 60 54 49 40 33 31 25 9
162 155 148 144 144 139 138 141 145 145 150 133 125 123 126 132 125 111 106 97 87 80 72 68 58 52 46 38 25 21 12 8 8
160 152 150 147 144 140 139 142 145 146 142 133 127 130 126 129 116 105 96 88 85 78 72 66 58 51 43 34 26 17 8 360 353
159 154 151 149 148 144 145 146 147 145 144 133 127 131 123 128 115 102 91 88 80 71 64 58 56 53 51 41 25 13 8 1 354
161 157 152 153 152 149 149 152 149 150 140 131 128 129 122 123 110 93 87 78 72 68 64 53 43 38 37 35 31 22 14 9 2
163 158 156 155 156 153 152 149 149 145 136 133 131 127 123 118 103 89 85 73 66 58 52 51 42 34 31 34 32 26 17 9 5
166 164 161 161 159 156 150 148 148 145 134 130 126 124 119 118 105 92 87 72 60 55 50 46 38 32 29 27 27 25 18 12 4
168 166 163 163 160 158 153 152 151 148 135 129 126 130 124 123 111 88 87 67 61 52 50 46 36 28 27 23 20 17 13 5 358
172 170 168 164 164 162 156 157 154 151 140 134 135 132 129 128 121 102 81 56 55 49 45 38 30 22 21 15 7 4 3 360 357
177 174 172 169 166 164 162 159 156 152 149 146 147 142 142 137 125 117 87 56 43 46 32 26 16 17 15 8 360 357 358 356 353
182 179 177 173 169 170 170 164 165 159 157 164 155 147 148 146 141 143 148 36 33 33 20 16 13 7 6 360 354 350 351 349 346
186 185 183 178 173 174 173 174 171 166 163 170 170 161 159 161 164 173 201 359 3 4 4 1 1 1 358 351 348 345 345 345 343
192 189 188 182 180 179 181 178 179 176 172 175 177 177 176 183 178 183 211 276 325 332 339 347 351 354 348 343 343 338 340 342 340
194 195 192 188 187 187 185 187 183 186 181 179 186 190 194 197 201 198 208 242 283 297 318 336 342 344 341 335 335 338 341 337 333
199 199 196 194 195 193 193 189 196 191 188 188 195 202 206 210 206 211 200 236 261 295 313 326 332 334 333 331 331 329 331 329 326
205 203 200 199 197 196 200 201 200 198 198 197 199 209 224 217 219 197 235 227 250 282 305 317 320 325 325 323 320 322 324 324 325
209 206 204 205 205 205 206 206 209 210 205 203 200 193 216 199 203 224 221 229 254 278 298 304 312 316 318 313 315 319 320 319 323
213 210 209 210 210 209 212 213 214 215 219 215 220 225 223 207 210 223 228 240 250 271 289 289 302 306 310 311 318 315 314 321 324
216 213 212 213 213 214 215 217 217 219 223 225 229 226 230 234 234 239 243 243 253 266 275 288 292 299 303 304 308 312 318 323 322
Height
1539 1541 1543 1544 1547 1548 1550 1552 1556 1556 1556 1559 1561 1562 1566 1566 1566 1567 1565 1564 1564 1562 1562 1563 1562 1562 1562 1562 1562 1563 1563 1563 1562
1537 1540 1543 1544 1547 1549 1551 1552 1555 1557 1557 1560 1562 1563 1566 1567 1568 1568 1568 1565 1565 1565 1563 1563 1564 1563 1562 1562 1562 1562 1562 1563 1563
1537 1540 1544 1546 1548 1550 1552 1554 1555 1558 1559 1561 1563 1565 1567 1569 1569 1569 1569 1567 1565 1565 1565 1564 1565 1564 1564 1563 1563 1562 1562 1563 1562
1537 1540 1543 1546 1549 1549 1552 1555 1556 1558 1559 1563 1562 1565 1567 1571 1571 1570 1570 1569 1567 1566 1566 1566 1565 1565 1564 1564 1563 1563 1562 1562 1561
1538 1539 1542 1548 1549 1550 1553 1556 1557 1560 1561 1564 1562 1566 1567 1571 1571 1571 1570 1569 1568 1567 1567 1566 1566 1565 1564 1563 1563 1563 1562 1561 1561
1538 1539 1542 1547 1550 1551 1554 1557 1558 1560 1562 1564 1563 1566 1567 1570 1571 1571 1571 1570 1569 1567 1567 1567 1566 1565 1564 1563 1562 1562 1562 1561 1560
1537 1540 1542 1547 1551 1552 1554 1557 1560 1562 1563 1563 1565 1567 1568 1570 1571 1571 1571 1571 1570 1568 1568 1567 1567 1565 1564 1564 1563 1561 1561 1561 1560
1536 1539 1542 1546 1551 1553 1555 1558 1561 1562 1564 1564 1566 1568 1569 1570 1571 1571 1572 1571 1572 1570 1568 1568 1568 1567 1565 1564 1562 1561 1560 1559 1559
1536 1540 1543 1547 1551 1554 1554 1558 1561 1562 1562 1565 1566 1569 1569 1570 1572 1573 1573 1572 1572 1571 1569 1568 1568 1567 1565 1565 1563 1561 1560 1559 1558
1535 1538 1542 1545 1550 1553 1555 1557 1560 1562 1562 1565 1567 1568 1569 1570 1572 1573 1575 1574 1573 1573 1570 1569 1568 1566 1565 1564 1563 1561 1559 1558 1557
1534 1537 1541 1545 1549 1552 1555 1557 1560 1560 1562 1564 1567 1567 1569 1571 1571 1574 1575 1574 1574 1572 1571 1569 1568 1566 1564 1563 1562 1560 1559 1557 1556
1533 1536 1540 1543 1547 1551 1554 1556 1559 1559 1562 1565 1567 1567 1570 1570 1571 1572 1574 1575 1573 1572 1571 1569 1567 1566 1564 1562 1561 1560 1559 1557 1555
1531 1535 1539 1542 1545 1550 1554 1556 1559 1560 1561 1565 1566 1566 1568 1570 1570 1571 1574 1574 1573 1572 1571 1569 1567 1565 1563 1562 1560 1559 1558 1556 1554
1529 1532 1537 1540 1543 1547 1553 1555 1559 1559 1560 1563 1565 1566 1566 1568 1568 1569 1572 1573 1572 1571 1569 1567 1565 1564 1563 1561 1559 1558 1556 1554 1553
1526 1531 1535 1537 1541 1545 1550 1553 1557 1559 1560 1561 1564 1565 1565 1566 1566 1567 1569 1570 1570 1568 1568 1566 1564 1562 1561 1560 1558 1557 1555 1553 1551
1523 1528 1532 1535 1538 1544 1548 1550 1556 1556 1558 1559 1562 1563 1563 1564 1564 1564 1566 1566 1567 1567 1566 1564 1562 1560 1559 1558 1557 1555 1553 1551 1549
1520 1524 1528 1533 1536 1540 1545 1547 1552 1554 1556 1557 1560 1561 1563 1562 1562 1562 1563 1564 1564 1565 1563 1561 1560 1558 1557 1556 1555 1554 1551 1549 1546
1515 1520 1525 1530 1533 1536 1542 1545 1549 1550 1552 1555 1557 1557 1558 1559 1559 1559 1560 1561 1561 1562 1562 1560 1558 1556 1555 1554 1553 1551 1548 1546 1543
1512 1517 1521 1526 1530 1533 1539 1543 1546 1548 1550 1552 1553 1553 1556 1556 1556 1557 1557 1558 1558 1559 1559 1557 1556 1554 1553 1551 1549 1547 1545 1542 1539
1507 1511 1516 1521 1526 1531 1535 1539 1542 1544 1547 1548 1549 1551 1552 1554 1553 1553 1554 1555 1555 1555 1555 1554 1553 1552 1551 1549 1547 1544 1541 1538 1535